This demonstration page uses our WeatherBlox Daily Observations layout. Learn more.

Left ArrowRight Arrow

41.55636, -103.73856

Hourly Observations for April 23, 2020

Temp ( °F °C ) Dew Point ( °F °C ) Humidity (%) Winds ( mph kmh ) Pressure ( in mb ) Visibility ( mi km ) Precip ( " mm )
6:58 pm 18:58 Clear 64 17.8 24 -4.4 22 22 N 5 7 29.83 1010 10 16 0.00 0.00
7:58 pm 19:58 Partly Cloudy 55 12.5 24 -4.2 31 31 SSW 6 9 29.83 1010 10 16 0.00 0.00
8:58 pm 20:58 Mostly Cloudy 55 13 26 -3.4 32 32 SSW 6 9 29.86 1011 10 16 0.00 0.00
9:58 pm 21:58 Mostly Cloudy 57 13.8 27 -3 31 31 SSE 3 6 29.83 1010 10 16 0.00 0.00
10:58 pm 22:58 Clear 51 10.8 28 -2.3 40 40 SSW 5 7 29.82 1010 10 16 0.00 0.00
11:58 pm 23:58 Partly Cloudy 50 9.9 30 -1.3 46 46 SSW 7 11 29.80 1009 10 16 0.00 0.00
12:58 am 00:58 Clear 49 9.4 31 -0.3 51 51 SSW 14 22 29.78 1008 10 16 0.00 0.00
1:58 am 01:58 Mostly Clear 42 5.6 29 -1.7 60 60 WSW 6 9 29.78 1008 10 16 0.00 0.00
2:58 am 02:58 Clear 46 7.8 26 -3.1 46 46 W 15 24 29.75 1007 10 16 0.00 0.00
3:58 am 03:58 Clear 44 6.9 26 -3.2 49 49 W 13 20 29.75 1007 10 16 0.00 0.00
4:58 am 04:58 Clear 46 7.7 26 -3.6 45 45 W 15 24 29.74 1007 10 16 0.00 0.00
5:58 am 05:58 Clear 47 8.4 25 -3.7 43 43 WNW 17 28 29.75 1007 10 16 0.00 0.00
6:58 am 06:58 Sunny 48 9 26 -3.4 42 42 W 15 24 29.77 1008 10 16 0.00 0.00
7:58 am 07:58 Mostly Cloudy 54 12.1 26 -3.2 35 35 W 20 31 29.78 1009 10 16 0.00 0.00
8:58 am 08:58 Partly Cloudy 56 13.6 27 -2.8 32 32 WNW 23 37 29.78 1008 10 16 0.00 0.00
9:58 am 09:58 Partly Cloudy 58 14.7 26 -3.2 29 29 NW 26 43 29.77 1008 10 16 0.00 0.00
10:58 am 10:58 Mostly Sunny 63 17.4 26 -3.4 24 24 NNW 22 35 29.76 1008 10 16 0.00 0.00
11:58 am 11:58 Mostly Sunny 64 18 24 -4.3 22 22 NNW 24 39 29.75 1007 10 16 0.00 0.00
12:58 pm 12:58 Mostly Sunny 65 18.6 25 -4 21 21 NW 26 43 29.74 1007 10 16 0.00 0.00
1:58 pm 13:58 Mostly Sunny 66 18.9 27 -2.8 23 23 NNW 17 28 29.73 1007 10 16 0.00 0.00
2:58 pm 14:58 Sunny 66 18.9 26 -3.3 22 22 NW 14 22 29.70 1006 10 16 0.00 0.00
3:58 pm 15:58 Mostly Cloudy 64 18 24 -4.5 21 21 N 13 20 29.70 1006 10 16 0.00 0.00
4:58 pm 16:58 Mostly Sunny 63 17.4 26 -3.2 24 24 N 12 19 29.70 1006 10 16 0.00 0.00
5:58 pm 17:58 Windy with Rain Showers Likely 51 10.6 40 4.6 67 67 NW 23 37 29.79 1009 10 16 0.02 0.51

Powered by AerisWeather